Location: Blachownia
(50.7807°N, 18.9578°E)
Time: 23:49:35
(UTC+01:00)

ISS - Pass Details

Date: 24 January 2019
Orbit: 403 x 411 km, 51.6° (Epoch: 18 February)

Event Time Altitude Azimuth Distance (km) Brightness Sun altitude
Rises 19:19:36 0° 243° (WSW) 2,332 0.9 -27.8°
Reaches altitude 10° 19:21:41 10° 241° (WSW) 1,475 -0.3 -28.1°
Enters shadow 19:22:19 15° 239° (WSW) 1,225 -0.8 -28.2°
